Location: Ladrillo (historical)
(32.8195°N, 117.2231°W)
Time: 00:37:54
(UTC+00:00)

Courier 1B - Pass Details

Date: 13 March 2021
Orbit: 963 x 1209 km, 28.3° (Epoch: 15 April)

Event Time Altitude Azimuth Distance (km) Brightness Sun altitude
Rises 14:28:50 0° 268° (W) 3,781 9.9 4.9°
Reaches altitude 10° 14:31:38 10° 264° (W) 2,794 9.3 5.5°
Maximum altitude 14:38:12 56° 188° (S) 1,157 8.1 6.9°
Drops below altitude 10° 14:44:30 10° 111° (ESE) 2,690 12.0 8.2°
Sets 14:47:10 0° 107° (ESE) 3,631 12.7 8.8°
